Location: Maccacari
(45.1333°N, 11.1333°E)
Time: 03:16:13
(UTC+00:00)

Altair - Pass Details

Date: 30 January 2021
Orbit: 1501 x 1682 km, 47.2° (Epoch: 01 March)

Event Time Altitude Azimuth Distance (km) Brightness Sun altitude
Exits shadow 06:38:35 - 282° (WNW) 4,941 9.5 -0.7°
Rises 06:38:42 0° 282° (WNW) 4,903 9.5 -0.7°
Reaches altitude 10° 06:41:51 10° 283° (WNW) 3,929 9.0 -0.2°
Maximum altitude 06:52:03 85° 13° (NNE) 1,692 7.8 1.4°
Drops below altitude 10° 07:02:14 10° 103° (ESE) 3,923 11.5 3.0°
Sets 07:05:22 0° 104° (ESE) 4,896 12.0 3.5°
